TimeEST,TemperatureF,Dew PointF,Humidity,Sea Level PressureIn,VisibilityMPH,Wind Direction,Wind SpeedMPH,Gust SpeedMPH,PrecipitationIn,Events,Conditions,WindDirDegrees,DateUTC
12:52 AM,39.0,28.0,65,30.17,10.0,Calm,Calm,-,N/A,,Mostly Cloudy,0,2013-01-20 05:52:00
1:52 AM,39.9,27.0,60,30.14,10.0,SSW,4.6,-,N/A,,Mostly Cloudy,210,2013-01-20 06:52:00
2:52 AM,36.0,28.0,73,30.14,10.0,SSW,5.8,-,N/A,,Overcast,200,2013-01-20 07:52:00
3:52 AM,41.0,27.0,57,30.12,10.0,WSW,3.5,-,N/A,,Overcast,240,2013-01-20 08:52:00
4:52 AM,39.9,27.0,60,30.12,10.0,WSW,4.6,-,N/A,,Overcast,240,2013-01-20 09:52:00
5:52 AM,39.9,26.1,58,30.11,10.0,WSW,3.5,-,N/A,,Overcast,240,2013-01-20 10:52:00
6:52 AM,36.0,26.1,67,30.11,10.0,Calm,Calm,-,N/A,,Mostly Cloudy,0,2013-01-20 11:52:00
7:52 AM,36.0,26.1,67,30.12,10.0,Calm,Calm,-,N/A,,Mostly Cloudy,0,2013-01-20 12:52:00
8:52 AM,43.0,30.0,60,30.14,10.0,Calm,Calm,-,N/A,,Mostly Cloudy,0,2013-01-20 13:52:00
9:52 AM,46.9,28.9,50,30.14,10.0,South,3.5,-,N/A,,Scattered Clouds,190,2013-01-20 14:52:00
10:52 AM,53.1,28.0,38,30.14,10.0,WSW,3.5,-,N/A,,Partly Cloudy,250,2013-01-20 15:52:00
11:52 AM,57.9,30.9,36,30.11,10.0,Calm,Calm,-,N/A,,Partly Cloudy,0,2013-01-20 16:52:00
12:52 PM,61.0,30.9,32,30.06,10.0,Variable,5.8,-,N/A,,Partly Cloudy,0,2013-01-20 17:52:00
1:52 PM,63.0,32.0,31,30.04,10.0,WSW,10.4,-,N/A,,Partly Cloudy,250,2013-01-20 18:52:00
2:52 PM,64.0,30.9,29,30.03,10.0,NW,11.5,-,N/A,,Partly Cloudy,320,2013-01-20 19:52:00
3:52 PM,64.9,30.9,28,30.02,10.0,NW,5.8,-,N/A,,Clear,320,2013-01-20 20:52:00
4:52 PM,63.0,27.0,26,30.02,10.0,WNW,5.8,-,N/A,,Clear,290,2013-01-20 21:52:00
5:52 PM,57.9,28.0,32,30.04,10.0,WSW,6.9,-,N/A,,Clear,250,2013-01-20 22:52:00
6:52 PM,55.0,30.9,40,30.06,10.0,West,4.6,-,N/A,,Clear,270,2013-01-20 23:52:00
7:52 PM,52.0,26.1,37,30.08,10.0,NNW,5.8,-,N/A,,Clear,330,2013-01-21 00:52:00
8:52 PM,46.9,27.0,46,30.09,10.0,North,4.6,-,N/A,,Clear,10,2013-01-21 01:52:00
9:52 PM,46.9,26.1,44,30.10,10.0,North,4.6,-,N/A,,Clear,360,2013-01-21 02:52:00
10:52 PM,44.1,27.0,51,30.10,10.0,Calm,Calm,-,N/A,,Clear,0,2013-01-21 03:52:00
11:52 PM,45.0,27.0,49,30.09,10.0,NNE,3.5,-,N/A,,Clear,20,2013-01-21 04:52:00